Flag for Germany Weather past 2 weeks in Heidenheim an der Brenz, Baden-Württemberg, Germany

Now
33 °F

Low clouds.


Feels Like: 29 °F
Forecast: 40 / 58 °F
Wind: 3 mph from Northeast

Location: Stoetten


UV Index: 3 (Moderate)

Visibility: 5 mi


Pressure: 29.95 "Hg

Humidity: 100%

Dew point: 33 °F

Location of Heidenheim an der BrenzLocation

Historic Weather in Heidenheim an der Brenz

°F

Heidenheim an der Brenz temperature yesterday

Maximum temperature yesterday: 44 °F (at 4:00 AM)
Minimum temperature yesterday: 32 °F (at 10:00 PM)
Average temperature yesterday: 38 °F

Past Weeks' High & Low Weather Summary

 TemperatureHumidityPressure
High64 °F (Apr 4, 5:00 PM)100% (Apr 5, 10:00 AM)30.41 "Hg (Apr 5, 10:00 AM)
Low30 °F (Apr 16, 7:00 AM)30% (Apr 17, 6:00 PM)29.64 "Hg (Apr 4, 5:00 PM)
Average47 °F72%30.08 "Hg
* Reported Apr 4 4:00 AM — Apr 19 4:00 AM, Heidenheim an der Brenz, Weather by CustomWeather, © 2014

Note: Actual official high and low records may vary slightly from our data, if they occured in-between our weather recording intervals... More about our weather records

Advertising

Historic Weather Conditions — Data for Previous 24 hours

 ConditionsComfort  
Time TempWeatherWind HumidityBarometerVisibility
4:00 AM
Apr 19
33 °FLow clouds.3 mph100%29.95 "Hg5 mi
3:00 AM33 °FLow clouds.3 mph100%29.96 "Hg3 mi
2:00 AM33 °FLow clouds.2 mph100%29.98 "Hg0 mi
1:00 AM33 °FLow clouds.3 mph100%29.99 "Hg0 mi
12:00 AM32 °FLow clouds.3 mph100%29.99 "Hg0 mi
11:00 PM
Apr 18
32 °FLow clouds.3 mph99%30.00 "Hg0 mi
10:00 PM32 °FOvercast.2 mph98%30.00 "Hg11 mi
9:00 PM33 °FOvercast.3 mph97%29.98 "Hg43 mi
8:00 PM33 °FPartly sunny.3 mph98%29.96 "Hg25 mi
7:00 PM33 °FLow clouds.2 mph100%29.95 "Hg7 mi
6:00 PM32 °FSnow showers. Low clouds.8 mph96%29.96 "Hg1 mi
5:00 PM38 °FLow clouds.2 mph92%29.91 "Hg19 mi
4:00 PM36 °FLow clouds.3 mph96%29.92 "Hg6 mi
3:00 PM36 °FLow clouds.3 mph93%29.92 "Hg6 mi
2:00 PM34 °FLight snow. Low clouds.6 mph95%29.94 "Hg4 mi
1:00 PM34 °FDrizzle. Low clouds.9 mph97%29.93 "Hg4 mi
12:00 PM39 °FLight rain. Dense fog.6 mph98%29.88 "Hg1 mi
11:00 AM42 °FLight rain. Overcast.8 mph85%29.87 "Hg11 mi
10:00 AM42 °FLight rain. Overcast.8 mph81%29.86 "Hg37 mi
9:00 AM42 °FLight rain. Overcast.8 mph81%29.87 "Hg25 mi
8:00 AM41 °FLight rain. Overcast.6 mph71%29.90 "Hg19 mi
7:00 AM42 °FOvercast.7 mph55%29.88 "Hg22 mi
6:00 AM44 °FOvercast.5 mph47%29.88 "Hg43 mi
5:00 AM43 °FOvercast.7 mph47%29.89 "Hg28 mi
4:00 AM44 °FOvercast.6 mph44%29.91 "Hg31 mi
Weather by CustomWeather, © 2014

See weather overview